Tracking 27086 objects as of 22-Mar-2023
HD Live streaming from Space Station
objects crossing your sky now

METEOSAT 12 (MTG I1)

Track METEOSAT 12 (MTG I1) now!
METEOSAT 12 (MTG I1) is classified as:


NORAD ID: 54743
Int'l Code: 2022-170C
Perigee: 35,779.6 km
Apogee: 35,805.9 km
Inclination: 0.8 °
Period: 1,436.0 minutes
Semi major axis: 42163 km
RCS: Unknown
Launch date: December 13, 2022
Source: European Organisation for the Exploitation of Meteorological Satellites (EUME)
Launch site: FRENCH GUIANA (FRGUI)
Your satellite tracking list
Your tracking list is empty




NASA's NSSDC Master Catalog

Two Line Element Set (TLE):
1 54743U 22170C   23080.96993892 -.00000047  00000-0  00000-0 0  9995
2 54743   0.7813 302.3938 0003120 109.7204 112.8577  1.00275431  1118
Source of the keplerian elements: AFSPC